[[{"header":{"parameterUnit":"m.s-1","parameterCategory":1,"la1":30.2991,"la2":30.254,"lo1":-89.0895,"lo2":-89.0444,"dy":0.0017,"dx":0.0017,"nx":28,"ny":28,"refTime":"2023-06-26T21:00:00:Z","depth":0,"parameterNumber":2,"parameterNumberName":"U-component_of_WINDS"},"data":[0,0,0,0,0,0,0,0,0,0,0,0,0,0,0,0,0,0,0,0,0,0,0,0,0,0,0,0,0,0,0,0,0,0,0,0,0,0,0,0,0,0,0,0,0,0,0,0,0,0,0,0,0,0,0,0,0,0,2.5171,2.5171,0,2.5113,2.5113,2.5112,2.4987,2.4985,2.4982,2.498,2.4926,2.4926,2.4927,0,0,0,0,0,0,0,0,0,0,0,0,0,2.5177,2.5177,2.5171,2.517,2.517,2.5113,2.5113,2.5112,2.4988,2.4985,2.4982,2.4979,2.4925,2.4926,2.4927,0,0,0,0,0,0,0,0,0,0,0,0,0,2.5152,2.5177,2.5171,2.5101,2.5094,2.5114,2.5113,2.5112,2.4988,2.4985,2.4981,2.4977,2.4925,2.4926,2.4928,2.5013,0,0,2.4932,2.4932,0,0,0,0,0,0,0,0,2.5154,2.5152,2.5112,2.5106,2.5098,2.5053,2.5094,2.5079,2.4989,2.5029,2.498,2.4975,2.4972,2.4969,2.4967,2.501,2.5008,2.4932,2.4933,2.4933,2.4934,0,0,0,0,0,0,0,2.5156,2.5154,2.5148,2.5112,2.5103,2.5073,2.5065,2.5091,2.5022,2.5025,2.5016,2.501,2.4967,2.4966,2.4964,2.5007,2.4932,2.4933,2.4934,2.4935,2.5115,2.5119,0,0,0,0,0,0,2.5167,2.5156,2.515,2.5147,2.5117,2.5076,2.5067,2.5072,2.5022,2.501,2.5014,2.5005,2.4965,2.4963,2.4962,2.5057,2.4933,2.4935,2.4936,2.5111,2.5116,2.512,0,0,0,0,0,0,2.5168,2.5168,2.5153,2.5149,2.5145,2.508,2.5086,2.5073,2.5071,2.5013,2.5001,2.5025,2.4962,2.496,2.5,2.5054,2.4935,2.4937,2.5106,2.5112,2.5118,2.5249,0,0,0,0,0,0,2.5168,2.5169,2.52,2.515,2.5145,2.5192,2.5089,2.5074,2.5073,2.5061,2.502,2.501,2.4959,2.4999,2.5001,2.5053,2.4938,2.5101,2.5109,2.5116,2.524,2.5259,2.5275,0,0,0,0,0,2.5169,2.5241,2.5202,2.5202,2.5183,2.5195,2.5192,2.5131,2.5078,2.5109,2.5071,2.5011,2.5047,2.5004,2.5006,2.5059,2.5098,2.5107,2.5115,2.5232,2.5255,2.5275,0,0,0,0,0,0,2.5301,2.5233,2.519,2.5247,2.5227,2.5174,2.5211,2.5157,2.5154,2.5143,2.5068,2.5059,2.511,2.5088,2.5041,2.5137,2.5062,2.5072,2.515,2.5172,2.5189,2.5194,2.4939,0,0,0,0,0,2.5336,2.535,2.5291,2.5348,2.5339,2.5277,2.528,2.5234,2.5211,2.5203,2.5168,2.515,2.5156,2.5162,2.5165,2.5235,2.5224,2.5272,2.529,2.5305,2.5315,2.5349,2.537,2.5149,2.5149,2.5149,0,0,2.5411,2.5375,2.5389,2.5373,2.5352,2.5369,2.5271,2.5294,2.5306,2.5207,2.5242,2.5216,2.519,2.5245,2.5267,2.5228,2.5373,2.5316,2.5329,2.533,2.536,2.5381,2.54,2.5155,2.5154,2.5153,0,0,2.5555,2.5529,2.5573,2.5553,2.5522,2.5479,2.549,2.5443,2.5421,2.5455,2.538,2.5393,2.5407,2.5391,2.5385,2.5519,2.5463,2.5522,2.5615,2.5649,2.5667,2.5682,2.573,2.5748,2.5532,2.5532,2.5532,0,2.5652,2.5673,2.5603,2.5629,2.5624,2.5532,2.5576,2.556,2.5533,2.5532,2.5488,2.5501,2.5477,2.5526,2.5559,2.5556,2.5566,2.5527,2.5669,2.5684,2.5697,2.5742,2.576,2.5539,2.5538,2.5538,2.5537,0,2.5794,2.581,2.5849,2.5822,2.582,2.5856,2.5791,2.5799,2.5752,2.5714,2.5749,2.5716,2.571,2.5718,2.5674,2.5761,2.5737,2.5683,2.5606,2.5727,2.5767,2.5784,2.555,2.5547,2.5545,2.5543,0,0,2.6023,2.5953,2.5969,2.5955,2.5912,2.5923,2.5953,2.5945,2.5953,2.5936,2.596,2.5972,2.592,2.5913,2.5865,2.5895,2.6003,2.5836,2.5834,2.5869,2.6096,2.6139,2.616,2.5965,2.5968,2.597,2.6099,0,2.6158,2.6205,2.6141,2.6203,2.6216,2.6127,2.6153,2.613,2.6095,2.6102,2.6063,2.6073,2.6003,2.5998,2.6023,2.5985,2.6048,2.5974,2.5988,2.5989,2.5998,2.6181,2.6227,2.635,2.6114,2.6117,2.6119,0,2.6323,2.6311,2.6374,2.6324,2.6327,2.6352,2.6339,2.6346,2.6317,2.6289,2.628,2.6222,2.6248,2.6172,2.6208,2.6159,2.616,2.6142,2.6145,2.6146,2.6063,2.6188,2.6388,2.6408,2.6143,2.6141,2.614,0,2.6485,2.6484,2.6521,2.6511,2.6455,2.6474,2.6451,2.6418,2.6417,2.6405,2.6403,2.6396,2.6392,2.6387,2.6329,2.6279,2.6372,2.6291,2.635,2.6352,2.6376,2.6376,2.6581,2.6375,2.6375,2.6374,2.6374,0,2.6643,2.6685,2.6592,2.6616,2.6659,2.6585,2.663,2.6599,2.657,2.6585,2.6508,2.6524,2.6445,2.6453,2.6407,2.6444,2.6443,2.6421,2.6409,2.6429,2.6432,2.643,2.6421,2.6379,2.6378,2.6377,2.6376,0,2.6832,2.6772,2.6806,2.6748,2.6734,2.6769,2.672,2.6739,2.6697,2.6717,2.6718,2.6653,2.6658,2.6598,2.6593,2.6561,2.6619,2.6591,2.6629,2.6621,2.6683,2.6679,2.6896,2.6921,2.6698,2.6701,2.6702,0,2.6939,2.6968,2.6912,2.6916,2.6896,2.6904,2.6901,2.6827,2.6828,2.6795,2.6819,2.6816,2.6811,2.6824,2.6777,2.6771,2.6743,2.6819,2.6742,2.6761,2.6745,2.6745,2.6747,2.6837,2.684,2.6842,2.6844,0,2.7134,2.7101,2.7099,2.7086,2.7084,2.707,2.7052,2.706,2.698,2.6984,2.6987,2.6983,2.6975,2.6974,2.6959,2.6936,2.6878,2.6868,2.6881,2.6903,2.6924,2.6914,2.6674,2.6864,2.6862,2.686,2.6859,2.6858,2.7285,2.7306,2.7269,2.7269,2.7247,2.7231,2.7245,2.7203,2.7204,2.719,2.7147,2.7157,2.7125,2.7099,2.7081,2.7088,2.7051,2.7071,2.7076,2.7083,2.7094,2.6921,2.7085,2.7085,2.7084,2.7083,2.7083,0,2.7476,2.7447,2.7447,2.7422,2.7422,2.7363,2.7339,2.7343,2.7352,2.7326,2.7321,2.7324,2.7322,2.7273,2.7266,2.7281,2.7253,2.7281,2.728,2.7276,2.7128,2.7117,2.7303,2.7303,2.7303,2.7303,2.7303,2.7303,2.7576,2.7609,2.7572,2.7593,2.7563,2.7571,2.7562,2.7546,2.7525,2.7531,2.7528,2.7495,2.746,2.7448,2.7444,2.7429,2.743,2.7468,2.7445,2.7308,2.7287,2.7266,2.7256,2.7468,2.7469,2.7592,2.7594,2.7594]},{"header":{"parameterUnit":"m.s-1","parameterCategory":1,"la1":30.2991,"la2":30.254,"lo1":-89.0895,"lo2":-89.0444,"dy":0.0017,"dx":0.0017,"nx":28,"ny":28,"refTime":"2023-06-26T21:00:00:Z","depth":0,"parameterNumber":3,"parameterNumberName":"V-component_of_WINDS"},"data":[0,0,0,0,0,0,0,0,0,0,0,0,0,0,0,0,0,0,0,0,0,0,0,0,0,0,0,0,0,0,0,0,0,0,0,0,0,0,0,0,0,0,0,0,0,0,0,0,0,0,0,0,0,0,0,0,0,0,0.8737,0.8737,0,0.8749,0.8749,0.8749,0.8731,0.873,0.8729,0.8729,0.874,0.8741,0.8741,0,0,0,0,0,0,0,0,0,0,0,0,0,0.8698,0.8699,0.8737,0.8737,0.8737,0.8749,0.8749,0.8749,0.8731,0.873,0.8729,0.8728,0.8739,0.874,0.8742,0,0,0,0,0,0,0,0,0,0,0,0,0,0.8713,0.8699,0.8737,0.873,0.8729,0.8749,0.8749,0.8749,0.8731,0.873,0.8729,0.8728,0.8739,0.874,0.8742,0.8769,0,0,0.8746,0.8746,0,0,0,0,0,0,0,0,0.8712,0.8714,0.8731,0.873,0.873,0.8737,0.8739,0.8756,0.8731,0.873,0.8729,0.8728,0.874,0.8741,0.8745,0.877,0.877,0.8746,0.8747,0.8747,0.8748,0,0,0,0,0,0,0,0.8711,0.8714,0.8742,0.8731,0.873,0.8725,0.8726,0.8742,0.874,0.873,0.8729,0.8731,0.8739,0.8744,0.8745,0.877,0.8746,0.8747,0.8748,0.8748,0.8817,0.8818,0,0,0,0,0,0,0.8711,0.8713,0.8741,0.8742,0.8718,0.8727,0.8728,0.8736,0.874,0.874,0.8731,0.873,0.8742,0.8744,0.8746,0.8778,0.8747,0.8749,0.8749,0.8816,0.8818,0.8819,0,0,0,0,0,0,0.871,0.8714,0.8741,0.8727,0.873,0.8729,0.8737,0.8736,0.8741,0.8741,0.874,0.8737,0.8741,0.8744,0.8763,0.8778,0.8749,0.875,0.8815,0.8817,0.8818,0.8842,0,0,0,0,0,0,0.8709,0.8713,0.8724,0.8727,0.8731,0.8759,0.8738,0.8737,0.8744,0.8741,0.8746,0.8745,0.8741,0.8761,0.8765,0.8779,0.8751,0.8814,0.8816,0.8818,0.884,0.8844,0.8848,0,0,0,0,0,0.8708,0.873,0.8725,0.8728,0.8744,0.876,0.8762,0.8756,0.8745,0.8755,0.8755,0.8745,0.8776,0.8764,0.8767,0.8782,0.8813,0.8815,0.8818,0.8838,0.8843,0.8848,0,0,0,0,0,0,0.8728,0.873,0.8724,0.8748,0.8754,0.8756,0.8769,0.8762,0.8771,0.8768,0.8761,0.8762,0.8783,0.8785,0.8771,0.8809,0.8792,0.8796,0.8807,0.8812,0.8816,0.8815,0.8752,0,0,0,0,0,0.8735,0.8748,0.8749,0.877,0.8773,0.8771,0.8777,0.8773,0.8778,0.878,0.8782,0.8787,0.8798,0.8805,0.8815,0.884,0.8841,0.8852,0.8856,0.886,0.8862,0.8876,0.8881,0.8826,0.8826,0.8826,0,0,0.875,0.8753,0.8761,0.8774,0.8778,0.8791,0.8773,0.8787,0.8797,0.8783,0.8801,0.8802,0.8808,0.883,0.8841,0.8832,0.8877,0.8863,0.8865,0.8866,0.8879,0.8884,0.8888,0.8828,0.8828,0.8827,0,0,0.8784,0.8788,0.8805,0.881,0.8816,0.8814,0.8819,0.8822,0.8823,0.8842,0.8831,0.8842,0.8861,0.8865,0.887,0.8906,0.8897,0.8909,0.893,0.8943,0.8947,0.8951,0.8964,0.8968,0.8912,0.8912,0.8912,0,0.8801,0.8821,0.8815,0.8831,0.8837,0.8825,0.8843,0.8847,0.8856,0.8861,0.8851,0.8875,0.8878,0.8901,0.891,0.8914,0.8919,0.8909,0.8947,0.8951,0.8954,0.8966,0.8971,0.8914,0.8913,0.8913,0.8913,0,0.8842,0.8856,0.887,0.8879,0.8887,0.8903,0.89,0.8908,0.8903,0.8903,0.8922,0.8925,0.8935,0.8941,0.8936,0.8964,0.8958,0.8948,0.8932,0.8961,0.8972,0.8977,0.8916,0.8915,0.8915,0.8914,0,0,0.8888,0.8895,0.89,0.8904,0.891,0.8921,0.8937,0.8947,0.8954,0.8961,0.8974,0.8991,0.8982,0.8987,0.8983,0.8994,0.9022,0.8983,0.8983,0.899,0.9053,0.906,0.9065,0.9017,0.9018,0.9018,0.9052,0,0.8921,0.895,0.8945,0.8972,0.8985,0.8974,0.8988,0.8993,0.8993,0.9004,0.9003,0.9015,0.9002,0.9006,0.9017,0.9017,0.9035,0.9014,0.9028,0.9029,0.9027,0.9071,0.9079,0.9111,0.9057,0.9057,0.9058,0,0.8964,0.8973,0.9001,0.9006,0.9011,0.9023,0.9033,0.9043,0.9049,0.9048,0.9054,0.9048,0.9064,0.9047,0.9069,0.9055,0.9061,0.9061,0.9063,0.9063,0.9045,0.9073,0.9121,0.9125,0.9065,0.9064,0.9064,0,0.8994,0.9013,0.9033,0.9037,0.9042,0.9052,0.9054,0.9059,0.9066,0.9074,0.9078,0.9088,0.9094,0.9101,0.9098,0.9086,0.912,0.9103,0.9119,0.9119,0.9126,0.9126,0.9175,0.9131,0.9131,0.9131,0.913,0,0.9031,0.9049,0.9046,0.9058,0.9078,0.9073,0.9092,0.9094,0.9098,0.911,0.9101,0.9112,0.9107,0.9118,0.9115,0.9133,0.9136,0.9135,0.9134,0.9136,0.9136,0.9139,0.9136,0.9132,0.9132,0.9131,0.9131,0,0.9068,0.9067,0.9087,0.9092,0.9093,0.9107,0.9111,0.9122,0.9121,0.9136,0.914,0.9139,0.9151,0.9148,0.9162,0.916,0.9182,0.9179,0.9181,0.918,0.9196,0.9194,0.9248,0.9255,0.9207,0.9207,0.9208,0,0.9092,0.9105,0.9111,0.9119,0.9122,0.9134,0.9141,0.9137,0.9145,0.9153,0.9163,0.9175,0.9184,0.9204,0.9204,0.9214,0.921,0.9229,0.9212,0.9213,0.921,0.9209,0.921,0.9232,0.9233,0.9233,0.9233,0,0.9133,0.9132,0.9143,0.9154,0.9162,0.9171,0.9178,0.9184,0.9181,0.919,0.9203,0.921,0.9224,0.9235,0.9245,0.9247,0.924,0.9239,0.9243,0.9244,0.9245,0.9244,0.9189,0.9237,0.9237,0.9237,0.9237,0.9236,0.9164,0.9175,0.9181,0.9194,0.9199,0.9206,0.9217,0.9218,0.9229,0.924,0.9237,0.9251,0.9257,0.9269,0.9273,0.9284,0.9277,0.9283,0.9284,0.9286,0.9288,0.9244,0.9286,0.9285,0.9285,0.9285,0.9285,0,0.9205,0.9208,0.922,0.923,0.924,0.9233,0.9241,0.9249,0.9262,0.9268,0.9278,0.9292,0.9304,0.9305,0.9316,0.9324,0.9321,0.9327,0.9326,0.9327,0.9293,0.9289,0.933,0.933,0.933,0.933,0.933,0.933,0.9227,0.9246,0.9246,0.9268,0.9271,0.9285,0.929,0.9297,0.9302,0.9319,0.9328,0.933,0.9334,0.9345,0.9355,0.9355,0.9359,0.9366,0.9365,0.9334,0.9329,0.9325,0.932,0.9368,0.9368,0.9398,0.9398,0.9398]}]]